Карточка аэропорта URWA

Внимание!
Информация на этой странице в стадии наполнения.
Если вы не увидели какой-то информации, или заметили неточность - пожалуйста сообщите нам!
Спасибо!
Команда RU-STAFF
Название аэропортаАстрахань
Название аэропорта (англ.)Astrakhan
Превышение-65 ft. (-19.8 m.)
Координаты46°16.998', 48°0.38399999999996'
Высота перехода3000 ft
Эшелон переходаFL50
Коды ответчика1010-1017
Зона ОрВДРостов-на-Дону РПИ (URRV)
Данные METARURWA 160830Z 01004MPS 9999 SCT/// 36/11 Q1009 R27/010070 NOSIG RMK QFE758/1011
Проноз погоды (TAF)URWA 160757Z 1609/1618 02003G11MPS 9999 SCT040 TEMPO 1609/1612 07003G10MPS TEMPO 1612/1615 SCT040CB
NOTAMshow/hide NOTAM
AWOS   TABLE

Информация о ВПП

ВПП Длина ВПП (м.) Покрытие Курс ВПП Частота ILS
111950Трава113 
291950Трава293 
093200Асфальтобетон89110.3
273200Асфальтобетон269110.5

Диспетчерские позиции

Позывной Наименование органа УВД Частота
URWA_APPАстрахань-Подход126.0
URWA_R_APPАстрахань-Круг120.6
URWA_TWRАстрахань-Вышка118.6



Спутниковое изображение